[[{"header":{"parameterUnit":"m.s-1","parameterCategory":1,"la1":30.2991,"la2":30.254,"lo1":-89.0895,"lo2":-89.0444,"dy":0.0017,"dx":0.0017,"nx":28,"ny":28,"refTime":"2026-02-09T09:00:00:Z","depth":0,"parameterNumber":2,"parameterNumberName":"U-component_of_WINDS"},"data":[0,0,0,0,0,0,0,0,0,0,0,0,0,0,0,0,0,0,0,0,0,0,0,0,0,0,0,0,0,0,0,0,0,0,0,0,0,0,0,0,0,0,0,0,0,0,0,0,0,0,0,0,0,0,0,0,0,0,1.1867,1.1868,0,1.1928,1.1929,1.193,1.1935,1.1934,1.1934,1.1933,1.1993,1.1995,1.1997,0,0,0,0,0,0,0,0,0,0,0,0,0,1.175,1.1752,1.1867,1.1868,1.1868,1.1928,1.1929,1.193,1.1935,1.1934,1.1934,1.1933,1.1992,1.1995,1.1997,0,0,0,0,0,0,0,0,0,0,0,0,0,1.1805,1.1753,1.1867,1.1878,1.188,1.1928,1.1929,1.193,1.1935,1.1934,1.1933,1.1933,1.1991,1.1995,1.1998,1.2038,0,0,1.2008,1.2009,0,0,0,0,0,0,0,0,1.1802,1.1809,1.1876,1.1878,1.188,1.1923,1.191,1.1966,1.1936,1.1914,1.1933,1.1932,1.197,1.1975,1.1989,1.204,1.2043,1.2008,1.201,1.2012,1.2012,0,0,0,0,0,0,0,1.1798,1.1807,1.1891,1.1877,1.1879,1.1879,1.1886,1.1921,1.1947,1.1916,1.1917,1.1924,1.1971,1.1986,1.199,1.2044,1.2008,1.2011,1.2013,1.2014,1.213,1.2131,0,0,0,0,0,0,1.1793,1.1803,1.1889,1.1893,1.1838,1.1882,1.189,1.191,1.1947,1.1951,1.1925,1.1924,1.198,1.1986,1.1992,1.2041,1.2012,1.2015,1.2017,1.2129,1.213,1.2131,0,0,0,0,0,0,1.179,1.18,1.1887,1.1848,1.1859,1.1885,1.1908,1.1912,1.1926,1.1953,1.1957,1.1935,1.198,1.1988,1.2026,1.2043,1.2016,1.2019,1.2128,1.2129,1.2131,1.2138,0,0,0,0,0,0,1.1787,1.1799,1.1815,1.1849,1.1861,1.1921,1.1909,1.1914,1.1932,1.1932,1.1964,1.1968,1.198,1.2021,1.203,1.2047,1.2022,1.2126,1.2128,1.213,1.2136,1.214,1.2142,0,0,0,0,0,1.1782,1.1814,1.1816,1.1827,1.1883,1.1922,1.1929,1.1942,1.1934,1.195,1.1967,1.1967,1.204,1.2025,1.2035,1.2053,1.2125,1.2128,1.213,1.2135,1.2139,1.2142,0,0,0,0,0,0,1.1781,1.1819,1.1821,1.1866,1.189,1.1922,1.1943,1.1946,1.1973,1.1972,1.1986,1.1993,1.2031,1.2046,1.2029,1.2093,1.2082,1.2086,1.2082,1.2086,1.2089,1.2084,1.2024,0,0,0,0,0,1.1786,1.1816,1.1847,1.1883,1.1895,1.1917,1.1935,1.1943,1.1969,1.1979,1.1999,1.2023,1.2051,1.207,1.2097,1.2139,1.2145,1.2156,1.2159,1.2161,1.2165,1.2187,1.2192,1.214,1.214,1.214,0,0,1.1797,1.1821,1.1839,1.1883,1.1904,1.1933,1.1926,1.1957,1.1979,1.1984,1.2021,1.2037,1.2065,1.2105,1.2123,1.2118,1.2181,1.2165,1.2166,1.2168,1.219,1.2195,1.2199,1.2141,1.2141,1.2141,0,0,1.183,1.1852,1.1884,1.1905,1.1936,1.195,1.1958,1.199,1.2,1.2039,1.2043,1.2068,1.2117,1.2136,1.2152,1.2193,1.2194,1.2202,1.2217,1.2239,1.2243,1.2246,1.226,1.2265,1.2205,1.2205,1.2205,0,1.1839,1.1884,1.19,1.1931,1.195,1.1957,1.1989,1.2008,1.2046,1.2058,1.2052,1.2113,1.2132,1.2176,1.2186,1.22,1.2208,1.2198,1.2241,1.2245,1.2248,1.2262,1.2267,1.2206,1.2206,1.2206,1.2205,0,1.1893,1.1924,1.1946,1.1984,1.2005,1.2036,1.2055,1.2075,1.2081,1.2096,1.2134,1.2157,1.2189,1.2201,1.2207,1.2246,1.2241,1.2238,1.2227,1.2254,1.2266,1.2272,1.2207,1.2206,1.2206,1.2206,0,0,1.1927,1.1973,1.1981,1.1998,1.2033,1.2056,1.2087,1.212,1.2136,1.2162,1.2187,1.2228,1.2225,1.2244,1.2252,1.2271,1.2301,1.2265,1.2266,1.227,1.2344,1.2345,1.2351,1.2302,1.2303,1.2304,1.2341,0,1.1963,1.2021,1.2035,1.2083,1.2111,1.2118,1.2145,1.2169,1.2183,1.2208,1.2224,1.2252,1.2247,1.2258,1.2277,1.2293,1.2315,1.2291,1.2325,1.2326,1.2317,1.2358,1.236,1.2393,1.2346,1.2347,1.2347,0,1.2014,1.2042,1.2093,1.2124,1.2137,1.2161,1.2191,1.2216,1.2242,1.2251,1.2272,1.2278,1.231,1.2297,1.234,1.2323,1.2337,1.2347,1.2349,1.2352,1.2337,1.236,1.2404,1.2409,1.2355,1.2355,1.2354,0,1.2032,1.2083,1.212,1.2134,1.2172,1.2188,1.2204,1.223,1.2248,1.2275,1.2286,1.2316,1.2331,1.2353,1.2367,1.2357,1.2408,1.2397,1.2415,1.2415,1.2425,1.2424,1.2471,1.2436,1.2436,1.2436,1.2436,0,1.2072,1.2102,1.2129,1.2151,1.2185,1.2202,1.2234,1.225,1.2273,1.2298,1.2306,1.2328,1.2346,1.2371,1.2382,1.2415,1.2422,1.2429,1.2431,1.2428,1.2427,1.2437,1.2435,1.2437,1.2437,1.2437,1.2436,0,1.2098,1.2117,1.2157,1.219,1.2198,1.2222,1.2249,1.227,1.2285,1.2316,1.2324,1.2347,1.2376,1.2393,1.243,1.2437,1.2474,1.2475,1.2465,1.2466,1.2483,1.248,1.2537,1.2545,1.2505,1.2506,1.2506,0,1.2121,1.2145,1.218,1.2198,1.2214,1.2243,1.2262,1.2278,1.2297,1.2329,1.2346,1.2377,1.2402,1.2449,1.2467,1.2496,1.2497,1.2515,1.2501,1.2497,1.2496,1.2494,1.2496,1.2517,1.2517,1.2518,1.2518,0,1.2159,1.2168,1.2196,1.2227,1.225,1.2275,1.2299,1.2313,1.2333,1.2354,1.2385,1.2405,1.2443,1.2472,1.2502,1.2517,1.252,1.2522,1.2528,1.2524,1.2517,1.252,1.247,1.2521,1.252,1.252,1.252,1.252,1.2184,1.2205,1.2234,1.2264,1.2285,1.2307,1.2329,1.2347,1.2373,1.2406,1.2414,1.2446,1.2472,1.2512,1.2528,1.2552,1.2549,1.2557,1.2559,1.256,1.2561,1.2514,1.2558,1.2558,1.2558,1.2558,1.2558,0,1.2222,1.2241,1.2269,1.2304,1.2327,1.233,1.2357,1.2377,1.2405,1.2429,1.2454,1.2489,1.2518,1.2539,1.2568,1.2583,1.2586,1.259,1.2589,1.2592,1.2563,1.2555,1.2588,1.2588,1.2588,1.2588,1.2588,1.2588,1.2245,1.2281,1.2293,1.2338,1.2356,1.2389,1.2404,1.2425,1.2444,1.2483,1.2508,1.2522,1.2544,1.2575,1.2601,1.2606,1.2616,1.262,1.2626,1.2598,1.2594,1.2591,1.2584,1.2623,1.2623,1.2653,1.2653,1.2653]},{"header":{"parameterUnit":"m.s-1","parameterCategory":1,"la1":30.2991,"la2":30.254,"lo1":-89.0895,"lo2":-89.0444,"dy":0.0017,"dx":0.0017,"nx":28,"ny":28,"refTime":"2026-02-09T09:00:00:Z","depth":0,"parameterNumber":3,"parameterNumberName":"V-component_of_WINDS"},"data":[0,0,0,0,0,0,0,0,0,0,0,0,0,0,0,0,0,0,0,0,0,0,0,0,0,0,0,0,0,0,0,0,0,0,0,0,0,0,0,0,0,0,0,0,0,0,0,0,0,0,0,0,0,0,0,0,0,0,2.9482,2.9482,0,2.9478,2.9478,2.9478,2.9416,2.9415,2.9413,2.9412,2.9408,2.9409,2.9411,0,0,0,0,0,0,0,0,0,0,0,0,0,2.9435,2.9436,2.9482,2.9482,2.9482,2.9478,2.9478,2.9478,2.9417,2.9415,2.9413,2.9411,2.9407,2.9409,2.9411,0,0,0,0,0,0,0,0,0,0,0,0,0,2.9446,2.9436,2.9482,2.9451,2.9448,2.9478,2.9478,2.9478,2.9417,2.9415,2.9412,2.941,2.9407,2.9409,2.9411,2.9471,0,0,2.9417,2.9418,0,0,0,0,0,0,0,0,2.9445,2.9447,2.9455,2.9453,2.945,2.9445,2.946,2.9476,2.9418,2.9429,2.9412,2.9409,2.9422,2.9423,2.9427,2.9471,2.9471,2.9417,2.9419,2.9419,2.942,0,0,0,0,0,0,0,2.9444,2.9447,2.948,2.9456,2.9452,2.9437,2.9436,2.9463,2.9439,2.9428,2.9423,2.9424,2.942,2.9426,2.9427,2.9471,2.9417,2.9419,2.942,2.9421,2.9563,2.9566,0,0,0,0,0,0,2.9448,2.9447,2.9481,2.948,2.9442,2.9439,2.9438,2.9449,2.9438,2.9434,2.9426,2.9421,2.9423,2.9425,2.9427,2.9497,2.9419,2.9421,2.9423,2.9561,2.9564,2.9567,0,0,0,0,0,0,2.9447,2.9452,2.9481,2.9463,2.9465,2.9443,2.9456,2.945,2.9456,2.9437,2.9432,2.9436,2.9421,2.9424,2.9461,2.9496,2.9422,2.9424,2.9558,2.9562,2.9565,2.9638,0,0,0,0,0,0,2.9446,2.9452,2.9475,2.9464,2.9466,2.9515,2.9458,2.9452,2.9459,2.9453,2.9445,2.9441,2.942,2.9458,2.9463,2.9497,2.9426,2.9555,2.956,2.9564,2.9632,2.9643,2.9653,0,0,0,0,0,2.9445,2.9495,2.9476,2.948,2.9494,2.9517,2.9519,2.9493,2.9463,2.9485,2.9473,2.9442,2.9491,2.9462,2.9467,2.9503,2.9552,2.9558,2.9564,2.9627,2.9641,2.9653,0,0,0,0,0,0,2.951,2.9493,2.9472,2.952,2.9521,2.9507,2.9535,2.9509,2.9518,2.9512,2.9479,2.9478,2.952,2.9515,2.9483,2.9561,2.9516,2.9523,2.9563,2.9576,2.9586,2.9587,2.9427,0,0,0,0,0,2.953,2.9551,2.9534,2.9578,2.958,2.9557,2.9566,2.9547,2.9546,2.9546,2.9536,2.9537,2.9553,2.9564,2.9577,2.963,2.9628,2.9657,2.9668,2.9677,2.9684,2.9712,2.9725,2.9586,2.9586,2.9585,0,0,2.9572,2.9565,2.958,2.9591,2.9589,2.9611,2.9558,2.9583,2.9599,2.955,2.9584,2.9577,2.9576,2.9622,2.9641,2.9619,2.9722,2.9684,2.9691,2.9693,2.9719,2.9733,2.9745,2.959,2.9589,2.9588,0,0,2.966,2.9656,2.9693,2.9692,2.969,2.9675,2.9684,2.9674,2.9668,2.9702,2.9665,2.9683,2.9711,2.9712,2.9716,2.9803,2.9775,2.9808,2.9864,2.9892,2.9903,2.9913,2.9945,2.9957,2.9815,2.9815,2.9815,0,2.9712,2.9743,2.9715,2.9743,2.9749,2.9705,2.9742,2.9742,2.9745,2.975,2.9725,2.9759,2.9754,2.98,2.9822,2.9826,2.9835,2.981,2.9904,2.9913,2.9922,2.9952,2.9964,2.9819,2.9819,2.9818,2.9818,0,2.9808,2.9831,2.986,2.9864,2.9874,2.9906,2.9882,2.9895,2.9874,2.9862,2.9897,2.989,2.9902,2.9911,2.9891,2.9954,2.994,2.991,2.9865,2.994,2.9968,2.9979,2.9825,2.9824,2.9822,2.9821,0,0,2.9937,2.9925,2.9937,2.9938,2.9933,2.995,2.998,2.9991,3.0003,3.0006,3.0031,3.0055,3.0027,3.0032,3.0011,3.0036,3.0107,3.0002,3.0002,3.0023,3.0177,3.0201,3.0215,3.0087,3.009,3.0091,3.0177,0,3.0023,3.0074,3.0049,3.0103,3.0124,3.0082,3.0109,3.0108,3.0097,3.0113,3.0101,3.0119,3.008,3.0083,3.0105,3.0094,3.0137,3.0087,3.0111,3.0112,3.0114,3.0229,3.0254,3.0336,3.0188,3.019,3.0191,0,3.0129,3.0137,3.0194,3.0185,3.0193,3.0217,3.0226,3.0241,3.024,3.023,3.0235,3.0209,3.0238,3.0193,3.0232,3.0198,3.0207,3.0202,3.0205,3.0207,3.0157,3.0235,3.0361,3.0374,3.0208,3.0207,3.0205,0,3.0219,3.0244,3.0281,3.0284,3.0274,3.0292,3.0289,3.0285,3.0294,3.0301,3.0306,3.0317,3.0323,3.0332,3.0309,3.0278,3.0352,3.0305,3.0345,3.0346,3.0364,3.0363,3.0494,3.0367,3.0367,3.0367,3.0367,0,3.0318,3.0354,3.0322,3.0345,3.0385,3.0355,3.0395,3.0387,3.0384,3.0405,3.0369,3.039,3.0358,3.0375,3.0357,3.0393,3.0396,3.0389,3.0384,3.0393,3.0394,3.0399,3.0393,3.037,3.037,3.0369,3.0368,0,3.0426,3.0405,3.0443,3.0431,3.0429,3.0459,3.0448,3.0469,3.0455,3.0482,3.0487,3.0465,3.0484,3.0461,3.0478,3.0466,3.0515,3.0501,3.0516,3.0513,3.0555,3.0552,3.0694,3.0712,3.0573,3.0574,3.0576,0,3.049,3.0518,3.0508,3.052,3.0519,3.0538,3.0546,3.0518,3.0528,3.0529,3.055,3.0565,3.0576,3.0607,3.0594,3.0606,3.0593,3.0641,3.0594,3.0603,3.0595,3.0594,3.0597,3.0652,3.0653,3.0655,3.0656,0,3.0608,3.0596,3.061,3.0621,3.0632,3.0639,3.0643,3.0655,3.0625,3.0639,3.0657,3.0666,3.0682,3.0698,3.0707,3.0703,3.0675,3.0671,3.0681,3.0691,3.0699,3.0696,3.0544,3.0668,3.0666,3.0666,3.0665,3.0664,3.0697,3.0719,3.0716,3.0733,3.0733,3.0738,3.0757,3.0746,3.0761,3.0773,3.0755,3.0778,3.0776,3.0785,3.0784,3.0802,3.0781,3.0796,3.08,3.0804,3.0811,3.0695,3.0803,3.0803,3.0803,3.0802,3.0802,0,3.0813,3.0809,3.0825,3.0832,3.0846,3.0817,3.082,3.0833,3.0855,3.0855,3.0866,3.0888,3.0903,3.089,3.0903,3.092,3.0907,3.0924,3.0923,3.0923,3.0829,3.0819,3.0934,3.0934,3.0934,3.0934,3.0934,3.0934,3.0876,3.0913,3.0901,3.0937,3.0933,3.0956,3.096,3.0964,3.0965,3.099,3.1003,3.0994,3.0989,3.1001,3.1014,3.101,3.1017,3.1039,3.103,3.0943,3.093,3.0917,3.0908,3.104,3.104,3.1123,3.1124,3.1125]}]]